Bangor, ME

3:55 AM EST on November 21, 2017 (GMT -0500)
Bangor International

Weather History for KBGR - June, 2013

Change the Weather History Date:

Saturday, June 8, 2013

  Actual Average Record
Temperature  
Mean Temperature 57 °F 61 °F  
Max Temperature 62 °F 72 °F 92 °F (1933)
Min Temperature 51 °F 50 °F 35 °F (2002)
Degree Days  
Heating Degree Days 8 5  
Month to date heating degree days 39 46  
Since 1 June heating degree days 39 46  
Since 1 July heating degree days 7489 7799  
Cooling Degree Days 0 1  
Month to date cooling degree days 22 8  
Year to date cooling degree days 30 14  
Since 1 June cooling degree days 22 8  
Growing Degree Days 6 (Base 50)    
Moisture  
Dew Point 53 °F    
Average Humidity 89    
Maximum Humidity 100    
Minimum Humidity 78    
Precipitation  
Precipitation 1.19 in 0.13 in 1.69 in (1999)
Month to date precipitation 1.68 1.07  
Year to date precipitation 12.97 17.12  
Snow  
Snow 0.00 in 0.00 in 0.00 in (2002)
Month to date snowfall 0.0 0.0  
Since 1 June snowfall 0.0 0.0  
Since 1 July snowfall 74.3 66.1  
Snow Depth 0.00 in    
Sea Level Pressure  
Sea Level Pressure 29.83 in    
Wind  
Wind Speed 9 mph (NNE)    
Max Wind Speed 21 mph    
Max Gust Speed 28 mph    
Visibility 5 miles    
Events Rain    
T = Trace of Precipitation, MM = Missing Value Source: NWS Daily Summary

Daily Weather History Graph

Daily Weather History Graph

Search for Another Location

Airport or City:

Trip Planner

Search our weather history database for the weather conditions in past years. The results will help you decide how hot, cold, wet, or windy it might be!

Date:

Astronomy

Jun. 08, 2013 Rise Set
Actual Time 4:49 AM EDT 8:19 PM EDT
Civil Twilight 4:12 AM EDT 8:56 PM EDT
Nautical Twilight 3:24 AM EDT 9:44 PM EDT
Astronomical Twilight 2:22 AM EDT 10:47 PM EDT
Moon 4:57 AM EDT (6/8) 8:16 PM EDT (6/8)
Length of Visible Light 16h 43m
Length of Day
15h 29m
New Moon, 0% of the Moon is Illuminated
Jun 8
New Moon
Jun 16
First Quarter
Jun 23
Full
Jun 30
Last Quarter
Jul 8
New

Hourly Weather History & Observations

Time (EDT) Temp. Dew Point Humidity Pressure Visibility Wind Dir Wind Speed Gust Speed Precip Events Conditions
12:00 AM 53.6 °F 51.8 °F 94% 30.02 in 5.0 mi NE 6.9 mph - 0.02 in Rain Rain
12:23 AM 53.6 °F 51.8 °F 94% 30.01 in 4.0 mi ENE 6.9 mph - 0.11 in Rain Rain
12:40 AM 53.6 °F 53.6 °F 100% 30.00 in 5.0 mi ENE 8.1 mph - 0.15 in Rain Rain
12:53 AM 53.1 °F 52.0 °F 96% 29.99 in 4.0 mi NE 9.2 mph - 0.18 in Rain Rain
1:04 AM 53.6 °F 51.8 °F 94% 29.97 in 5.0 mi ENE 9.2 mph - 0.05 in Rain Rain
1:53 AM 54.0 °F 53.1 °F 97% 29.95 in 8.0 mi ENE 6.9 mph - 0.07 in Rain Light Rain
2:29 AM 53.6 °F 51.8 °F 94% 29.92 in 9.0 mi ENE 12.7 mph 18.4 mph 0.01 in Rain Light Rain
2:53 AM 54.0 °F 52.0 °F 93% 29.90 in 5.0 mi ENE 10.4 mph - 0.01 in Rain Light Rain
3:04 AM 53.6 °F 51.8 °F 94% 29.89 in 5.0 mi ENE 12.7 mph - 0.01 in Rain Light Rain
3:11 AM 53.6 °F 53.6 °F 100% 29.89 in 5.0 mi ENE 8.1 mph 18.4 mph 0.02 in Rain Light Rain
3:21 AM 53.6 °F 53.6 °F 100% 29.88 in 5.0 mi ENE 10.4 mph - 0.02 in Rain Light Rain
3:34 AM 53.6 °F 53.6 °F 100% 29.88 in 4.0 mi ENE 9.2 mph - 0.05 in Rain Rain
3:53 AM 54.0 °F 52.0 °F 93% 29.87 in 4.0 mi ENE 9.2 mph - 0.06 in Rain Light Rain
4:53 AM 53.1 °F 52.0 °F 96% 29.84 in 3.0 mi ENE 9.2 mph - 0.21 in Rain Heavy Rain
5:42 AM 53.6 °F 51.8 °F 94% 29.85 in 1.8 mi NE 8.1 mph - 0.25 in Rain Heavy Rain
5:51 AM 53.6 °F 51.8 °F 94% 29.84 in 1.2 mi NNE 10.4 mph - 0.33 in Rain Heavy Rain
5:53 AM 53.1 °F 52.0 °F 96% 29.84 in 1.2 mi NNE 9.2 mph - 0.33 in Rain Heavy Rain
6:01 AM 53.6 °F 51.8 °F 94% 29.82 in 2.5 mi NE 10.4 mph - 0.01 in Rain Light Rain
6:07 AM 53.6 °F 51.8 °F 94% 29.82 in 3.0 mi ENE 8.1 mph - 0.01 in Rain Light Rain
6:23 AM 51.8 °F 51.8 °F 100% 29.83 in 1.0 mi NNE 8.1 mph - 0.13 in Rain Heavy Rain
6:35 AM 51.8 °F 51.8 °F 100% 29.81 in 2.0 mi NE 9.2 mph - 0.19 in Rain Heavy Rain
6:49 AM 51.8 °F 51.8 °F 100% 29.76 in 3.0 mi NE 13.8 mph - 0.25 in Rain Rain
6:53 AM 52.0 °F 51.1 °F 97% 29.77 in 4.0 mi NE 10.4 mph - 0.26 in Rain Rain
7:53 AM 52.0 °F 51.1 °F 97% 29.75 in 10.0 mi NE 9.2 mph - 0.02 in   Overcast
8:42 AM 51.8 °F 51.8 °F 100% 29.74 in 1.8 mi NE 9.2 mph - 0.06 in Rain Heavy Rain
8:53 AM 52.0 °F 51.1 °F 97% 29.73 in 2.5 mi NE 10.4 mph - 0.10 in Rain Rain
9:02 AM 51.8 °F 51.8 °F 100% 29.73 in 3.0 mi NNE 8.1 mph - 0.03 in Rain Rain
9:53 AM 53.1 °F 52.0 °F 96% 29.71 in 2.5 mi NNE 10.4 mph - 0.06 in Rain Light Rain
10:08 AM 53.6 °F 51.8 °F 94% 29.71 in 5.0 mi NNE 10.4 mph - 0.01 in Rain Light Rain
10:27 AM 53.6 °F 51.8 °F 94% 29.70 in 2.0 mi NNE 11.5 mph - 0.03 in Rain Light Rain
10:35 AM 53.6 °F 53.6 °F 100% 29.70 in 1.8 mi NNE 12.7 mph - 0.04 in Rain Light Rain
10:53 AM 54.0 °F 53.1 °F 97% 29.70 in 2.0 mi North 12.7 mph - 0.06 in Rain Light Rain
11:06 AM 55.4 °F 53.6 °F 94% 29.69 in 3.0 mi NNE 15.0 mph - 0.01 in Rain Light Rain
11:15 AM 55.4 °F 53.6 °F 94% 29.68 in 2.0 mi NNE 15.0 mph - 0.01 in Rain Light Rain
11:24 AM 55.4 °F 53.6 °F 94% 29.69 in 1.8 mi NNE 13.8 mph - 0.01 in Rain Light Rain
11:33 AM 55.4 °F 53.6 °F 94% 29.70 in 2.0 mi North 11.5 mph - 0.01 in Rain Light Rain
11:53 AM 55.9 °F 54.0 °F 93% 29.69 in 2.0 mi North 11.5 mph 21.9 mph 0.01 in Rain Light Rain
12:11 PM 55.4 °F 55.4 °F 100% 29.70 in 2.0 mi North 12.7 mph - 0.00 in Rain Light Rain
12:46 PM 57.2 °F 55.4 °F 94% 29.70 in 4.0 mi North 12.7 mph - 0.01 in   Overcast
12:53 PM 55.9 °F 54.0 °F 93% 29.70 in 3.0 mi North 15.0 mph 23.0 mph 0.01 in   Overcast
1:43 PM 57.2 °F 55.4 °F 94% 29.73 in 9.0 mi North 17.3 mph 21.9 mph 0.00 in   Overcast
1:53 PM 57.9 °F 55.0 °F 90% 29.72 in 8.0 mi North 17.3 mph 24.2 mph 0.00 in   Overcast
2:21 PM 60.8 °F 53.6 °F 77% 29.72 in 10.0 mi North 15.0 mph - N/A   Overcast
2:32 PM 57.2 °F 53.6 °F 88% 29.73 in 7.0 mi North 18.4 mph 25.3 mph N/A   Overcast
2:42 PM 60.8 °F 55.4 °F 82% 29.73 in 10.0 mi North 18.4 mph 25.3 mph N/A   Overcast
2:53 PM 60.1 °F 54.0 °F 80% 29.74 in 10.0 mi North 17.3 mph 26.5 mph N/A   Overcast
3:53 PM 61.0 °F 54.0 °F 78% 29.77 in 10.0 mi North 13.8 mph - N/A   Overcast
4:53 PM 61.0 °F 54.0 °F 78% 29.81 in 10.0 mi NNW 10.4 mph - N/A   Overcast
5:53 PM 61.0 °F 54.0 °F 78% 29.84 in 10.0 mi North 9.2 mph - N/A   Overcast
6:50 PM 60.8 °F 53.6 °F 77% 29.88 in 10.0 mi NW 6.9 mph - N/A   Overcast
6:53 PM 61.0 °F 54.0 °F 78% 29.88 in 10.0 mi NNW 6.9 mph - N/A   Overcast
7:14 PM 57.2 °F 55.4 °F 94% 29.89 in 2.5 mi NNW 8.1 mph - 0.00 in Rain Light Rain
7:25 PM 57.2 °F 55.4 °F 94% 29.89 in 2.0 mi North 4.6 mph - 0.00 in   Overcast
7:33 PM 57.2 °F 55.4 °F 94% 29.90 in 2.0 mi North 3.5 mph - 0.00 in   Light Drizzle
7:44 PM 57.2 °F 55.4 °F 94% 29.90 in 3.0 mi NNW 4.6 mph - 0.00 in   Overcast
7:53 PM 57.0 °F 55.0 °F 93% 29.91 in 3.0 mi NW 3.5 mph - 0.00 in   Overcast
8:38 PM 55.4 °F 55.4 °F 100% 29.93 in 2.0 mi North 8.1 mph - 0.00 in   Light Drizzle
8:53 PM 55.9 °F 55.0 °F 97% 29.94 in 2.0 mi North 6.9 mph - 0.00 in Rain Light Rain
9:31 PM 55.4 °F 53.6 °F 94% 29.94 in 6.0 mi NNE 5.8 mph - 0.01 in   Overcast
9:53 PM 55.9 °F 54.0 °F 93% 29.95 in 7.0 mi NE 4.6 mph - 0.01 in   Overcast
10:11 PM 55.4 °F 53.6 °F 94% 29.96 in 10.0 mi North 5.8 mph - N/A   Overcast
10:41 PM 55.4 °F 53.6 °F 94% 29.97 in 10.0 mi North 3.5 mph - N/A   Overcast
10:53 PM 55.0 °F 53.1 °F 93% 29.96 in 10.0 mi North 5.8 mph - N/A   Overcast
11:10 PM 55.4 °F 53.6 °F 94% 29.96 in 10.0 mi NNE 4.6 mph - N/A   Mostly Cloudy
11:34 PM 53.6 °F 51.8 °F 94% 29.97 in 7.0 mi NNE 8.1 mph - N/A   Overcast
11:53 PM 54.0 °F 52.0 °F 93% 29.97 in 10.0 mi NNE 6.9 mph - 0.00 in   Overcast